Terminal Aerodrome Forecast
Issued by NWS Spokane, WA

Home | Current Version | Previous Version | Text Only | Print | Product List | Glossary On
Versions: 1 2 3 4 5 6 7 8 9 10 11 12 13 14
000
FTUS46 KOTX 250301 AAA
TAFGEG
TAF AMD
KGEG 250301Z 2503/2524 36012KT P6SM FEW060 SCT090 BKN200
     FM250500 24007KT P6SM SCT120 BKN200
     FM251500 18006KT P6SM BKN050 OVC100
     FM252100 22007KT P6SM VCSH SCT060 SCT150=

USA.gov is the U.S. government's official web portal to all federal, state and local government web resources and services.